Check out our new BloomSky Weather System.

Active alerts


No alerts


Thunder radar  blitzortung!


Rain radar more information rain snow radar


Visit our other weather sites:

Template documentation
and downloads

And another site



Weather Underground History page Text

Daily Summary for February 3, 2017 Units:  Metric    English   Both
« Previous Day
Next Day »
Daily Weekly Monthly Yearly Custom
  High: Low: Average:
Temperature: 17.1 °C 9.5 °C 12.3 °C
Dew Point: 10.3 °C 5.5 °C 7.8 °C
Humidity: 89 % 57 % 75 %
Wind Speed: 19.3 km/h 0 km/h 5.3 km/h
Wind Gust: 22.5 km/h - -
Wind:- - SW
Pressure: 1028.7 hPa 1022.9 hPa -
Precipitation: 0 mm    
Historical Graphs
 
 
Tabular Data for February 3, 2017
Time Temperature Dew Point Pressure Wind Wind Speed Wind Gust Humidity Rainfall Rate (Hourly)
00:01 12.2 °C 10.1 °C 1023.2 hPa North 3.2 km/h 8 km/h 87 % 0 mm
00:06 12.2 °C 10.1 °C 1023.2 hPa NNE 1.6 km/h 9.7 km/h 87 % 0 mm
00:11 12.2 °C 10.1 °C 1023.2 hPa North 1.6 km/h 9.7 km/h 87 % 0 mm
00:16 12.2 °C 10.1 °C 1023.2 hPa NNE 1.6 km/h 9.7 km/h 87 % 0 mm
00:21 12.2 °C 10.3 °C 1023.2 hPa NE 3.2 km/h 11.3 km/h 88 % 0 mm
00:26 12.1 °C 10.2 °C 1023.2 hPa North 1.6 km/h 11.3 km/h 88 % 0 mm
00:31 12.1 °C 10.2 °C 1023.2 hPa NNE 1.6 km/h 11.3 km/h 88 % 0 mm
00:36 12.1 °C 10.2 °C 1023.2 hPa NNW 1.6 km/h 9.7 km/h 88 % 0 mm
00:41 12.1 °C 10.2 °C 1023.2 hPa NNW 1.6 km/h 9.7 km/h 88 % 0 mm
00:46 12.1 °C 10.2 °C 1023.2 hPa WNW 6.4 km/h 9.7 km/h 88 % 0 mm
00:51 12 °C 10.1 °C 1023.2 hPa NNW 6.4 km/h 14.5 km/h 88 % 0 mm
00:56 11.9 °C 10 °C 1023.2 hPa NNW 4.8 km/h 14.5 km/h 88 % 0 mm
01:01 11.8 °C 9.9 °C 1023.2 hPa NW 3.2 km/h 14.5 km/h 88 % 0 mm
01:06 11.8 °C 9.9 °C 1022.9 hPa NW 4.8 km/h 12.9 km/h 88 % 0 mm
01:11 11.8 °C 9.9 °C 1022.9 hPa Calm   12.9 km/h 88 % 0 mm
01:16 11.7 °C 9.8 °C 1022.9 hPa NNE 3.2 km/h 11.3 km/h 88 % 0 mm
01:21 11.7 °C 9.8 °C 1022.9 hPa NW 8 km/h 9.7 km/h 88 % 0 mm
01:26 11.6 °C 9.7 °C 1022.9 hPa NW 3.2 km/h 14.5 km/h 88 % 0 mm
01:31 11.6 °C 9.7 °C 1023.2 hPa NE 1.6 km/h 14.5 km/h 88 % 0 mm
01:37 11.5 °C 9.6 °C 1023.2 hPa Calm   14.5 km/h 88 % 0 mm
01:42 11.4 °C 9.5 °C 1023.2 hPa North 4.8 km/h 9.7 km/h 88 % 0 mm
01:47 11.3 °C 9.6 °C 1023.2 hPa NNW 6.4 km/h 9.7 km/h 89 % 0 mm
01:52 11.3 °C 9.6 °C 1023.2 hPa NW 3.2 km/h 9.7 km/h 89 % 0 mm
01:57 11.3 °C 9.6 °C 1023.2 hPa NE 4.8 km/h 9.7 km/h 89 % 0 mm
02:02 11.2 °C 9.5 °C 1023.2 hPa NNW 4.8 km/h 9.7 km/h 89 % 0 mm
02:07 11.2 °C 9.5 °C 1023.6 hPa NW 6.4 km/h 9.7 km/h 89 % 0 mm
02:12 11.1 °C 9.4 °C 1023.2 hPa WNW 1.6 km/h 11.3 km/h 89 % 0 mm
02:17 11 °C 9.3 °C 1023.2 hPa NW 4.8 km/h 11.3 km/h 89 % 0 mm
02:22 10.9 °C 9.2 °C 1023.2 hPa NNW 4.8 km/h 11.3 km/h 89 % 0 mm
02:27 10.9 °C 9.2 °C 1023.2 hPa NNE 1.6 km/h 9.7 km/h 89 % 0 mm
02:32 10.9 °C 9.2 °C 1023.6 hPa North 3.2 km/h 11.3 km/h 89 % 0 mm
02:37 10.9 °C 9.2 °C 1023.6 hPa North 4.8 km/h 11.3 km/h 89 % 0 mm
02:42 10.8 °C 9.1 °C 1023.6 hPa NW 1.6 km/h 11.3 km/h 89 % 0 mm
02:47 10.8 °C 9.1 °C 1023.6 hPa NNW 8 km/h 11.3 km/h 89 % 0 mm
02:52 10.7 °C 9 °C 1023.6 hPa NNW 12.9 km/h 14.5 km/h 89 % 0 mm
02:57 10.7 °C 9 °C 1023.6 hPa NE 6.4 km/h 14.5 km/h 89 % 0 mm
03:02 10.7 °C 9 °C 1023.6 hPa North 4.8 km/h 14.5 km/h 89 % 0 mm
03:07 10.6 °C 8.9 °C 1023.6 hPa NW 6.4 km/h 14.5 km/h 89 % 0 mm
03:12 10.6 °C 8.9 °C 1023.6 hPa NW 3.2 km/h 12.9 km/h 89 % 0 mm
03:17 10.6 °C 8.9 °C 1023.6 hPa NNW 4.8 km/h 12.9 km/h 89 % 0 mm
03:22 10.6 °C 8.9 °C 1023.6 hPa NW 6.4 km/h 12.9 km/h 89 % 0 mm
03:27 10.6 °C 8.9 °C 1023.6 hPa NW 3.2 km/h 12.9 km/h 89 % 0 mm
03:32 10.6 °C 8.7 °C 1023.6 hPa NW 9.7 km/h 12.9 km/h 88 % 0 mm
03:37 10.5 °C 8.6 °C 1023.6 hPa SW 1.6 km/h 12.9 km/h 88 % 0 mm
03:42 10.4 °C 8.5 °C 1023.2 hPa North 16.1 km/h 17.7 km/h 88 % 0 mm
03:47 10.4 °C 8.5 °C 1023.2 hPa NNW 4.8 km/h 17.7 km/h 88 % 0 mm
03:52 10.4 °C 8.7 °C 1023.6 hPa NW 6.4 km/h 17.7 km/h 89 % 0 mm
03:57 10.3 °C 8.6 °C 1023.6 hPa North 4.8 km/h 16.1 km/h 89 % 0 mm
04:02 10.3 °C 8.6 °C 1023.9 hPa NW 4.8 km/h 14.5 km/h 89 % 0 mm
04:08 10.3 °C 8.4 °C 1023.9 hPa North 6.4 km/h 11.3 km/h 88 % 0 mm
04:13 10.3 °C 8.4 °C 1023.9 hPa NNW 3.2 km/h 12.9 km/h 88 % 0 mm
04:18 10.3 °C 8.6 °C 1023.9 hPa Calm   14.5 km/h 89 % 0 mm
04:23 10.3 °C 8.6 °C 1023.9 hPa NW 1.6 km/h 14.5 km/h 89 % 0 mm
04:28 10.3 °C 8.4 °C 1023.9 hPa East 4.8 km/h 14.5 km/h 88 % 0 mm
04:33 10.3 °C 8.4 °C 1023.9 hPa NE 3.2 km/h 19.3 km/h 88 % 0 mm
04:38 10.3 °C 8.4 °C 1024.3 hPa NNW 3.2 km/h 19.3 km/h 88 % 0 mm
04:43 10.3 °C 8.4 °C 1024.3 hPa North 4.8 km/h 19.3 km/h 88 % 0 mm
04:48 10.3 °C 8.4 °C 1024.3 hPa NNW 3.2 km/h 14.5 km/h 88 % 0 mm
04:53 10.3 °C 8.4 °C 1024.3 hPa NNW 6.4 km/h 11.3 km/h 88 % 0 mm
04:58 10.2 °C 8.3 °C 1024.3 hPa NE 6.4 km/h 12.9 km/h 88 % 0 mm
05:03 10.3 °C 8.4 °C 1024.3 hPa NNW 8 km/h 14.5 km/h 88 % 0 mm
05:08 10.2 °C 8.3 °C 1024.3 hPa WNW 6.4 km/h 14.5 km/h 88 % 0 mm
05:13 10.2 °C 8.3 °C 1024.3 hPa NNW 1.6 km/h 14.5 km/h 88 % 0 mm
05:18 10.2 °C 8.3 °C 1024.3 hPa NW 1.6 km/h 11.3 km/h 88 % 0 mm
05:23 10.2 °C 8.3 °C 1024.6 hPa North 3.2 km/h 11.3 km/h 88 % 0 mm
05:28 10.2 °C 8.3 °C 1024.6 hPa NNW 1.6 km/h 11.3 km/h 88 % 0 mm
05:33 10.2 °C 8.3 °C 1024.6 hPa NNW 1.6 km/h 12.9 km/h 88 % 0 mm
05:38 10.2 °C 8.3 °C 1024.6 hPa NNW 1.6 km/h 17.7 km/h 88 % 0 mm
05:43 10.1 °C 8.4 °C 1024.6 hPa ENE 1.6 km/h 17.7 km/h 89 % 0 mm
05:48 10.1 °C 8.4 °C 1024.9 hPa NNW 3.2 km/h 17.7 km/h 89 % 0 mm
05:54 10.1 °C 8.4 °C 1024.9 hPa NNW 6.4 km/h 11.3 km/h 89 % 0 mm
05:59 10 °C 8.3 °C 1025.3 hPa North 8 km/h 9.7 km/h 89 % 0 mm
06:04 10 °C 8.3 °C 1025.3 hPa NW 4.8 km/h 17.7 km/h 89 % 0 mm
06:09 9.9 °C 8 °C 1025.3 hPa North 11.3 km/h 17.7 km/h 88 % 0 mm
06:14 9.9 °C 8 °C 1025.3 hPa NW 8 km/h 20.9 km/h 88 % 0 mm
06:19 9.8 °C 7.9 °C 1025.6 hPa NNW 4.8 km/h 20.9 km/h 88 % 0 mm
06:24 9.8 °C 8.1 °C 1025.6 hPa North 8 km/h 20.9 km/h 89 % 0 mm
06:29 9.7 °C 7.8 °C 1025.6 hPa North 9.7 km/h 16.1 km/h 88 % 0 mm
06:34 9.7 °C 7.8 °C 1025.6 hPa NNW 3.2 km/h 16.1 km/h 88 % 0 mm
06:39 9.6 °C 7.9 °C 1025.6 hPa NW 6.4 km/h 17.7 km/h 89 % 0 mm
06:44 9.7 °C 7.8 °C 1026 hPa North 6.4 km/h 17.7 km/h 88 % 0 mm
06:49 9.6 °C 7.9 °C 1026 hPa NNE 4.8 km/h 17.7 km/h 89 % 0 mm
06:54 9.6 °C 7.7 °C 1026 hPa NW 1.6 km/h 17.7 km/h 88 % 0 mm
06:59 9.6 °C 7.7 °C 1026 hPa NNW 12.9 km/h 17.7 km/h 88 % 0 mm
07:04 9.6 °C 7.7 °C 1026 hPa NW 1.6 km/h 17.7 km/h 88 % 0 mm
07:09 9.5 °C 7.6 °C 1026 hPa NNW 11.3 km/h 12.9 km/h 88 % 0 mm
07:14 9.5 °C 7.6 °C 1026 hPa North 8 km/h 12.9 km/h 88 % 0 mm
07:19 9.5 °C 7.6 °C 1026.3 hPa Calm   14.5 km/h 88 % 0 mm
07:24 9.5 °C 7.8 °C 1026.3 hPa North 6.4 km/h 14.5 km/h 89 % 0 mm
07:29 9.5 °C 7.6 °C 1026.3 hPa NNW 9.7 km/h 14.5 km/h 88 % 0 mm
07:34 9.5 °C 7.6 °C 1026.3 hPa NE 6.4 km/h 12.9 km/h 88 % 0 mm
07:39 9.5 °C 7.6 °C 1026.3 hPa ENE 4.8 km/h 16.1 km/h 88 % 0 mm
07:44 9.5 °C 7.6 °C 1026.3 hPa NE 1.6 km/h 16.1 km/h 88 % 0 mm
07:49 9.6 °C 7.5 °C 1026.3 hPa North 8 km/h 16.1 km/h 87 % 0 mm
07:54 9.6 °C 7.5 °C 1026.3 hPa North 3.2 km/h 16.1 km/h 87 % 0 mm
07:59 9.6 °C 7.5 °C 1026.3 hPa Calm   16.1 km/h 87 % 0 mm
08:05 9.7 °C 7.6 °C 1026.6 hPa NNW 1.6 km/h 16.1 km/h 87 % 0 mm
08:10 9.6 °C 7.4 °C 1026.6 hPa NNW 3.2 km/h 12.9 km/h 86 % 0 mm
08:15 9.7 °C 7.5 °C 1026.6 hPa North 4.8 km/h 12.9 km/h 86 % 0 mm
08:20 9.7 °C 7.5 °C 1026.6 hPa NW 3.2 km/h 12.9 km/h 86 % 0 mm
08:25 9.7 °C 7.5 °C 1026.6 hPa NNW 1.6 km/h 12.9 km/h 86 % 0 mm
08:30 9.8 °C 7.6 °C 1027 hPa WNW 1.6 km/h 9.7 km/h 86 % 0 mm
08:35 9.8 °C 7.4 °C 1027 hPa North 3.2 km/h 11.3 km/h 85 % 0 mm
08:40 9.8 °C 7.4 °C 1027 hPa NNE 4.8 km/h 19.3 km/h 85 % 0 mm
08:45 9.8 °C 7.4 °C 1027 hPa NNE 4.8 km/h 19.3 km/h 85 % 0 mm
08:47 9.8 °C 7.4 °C 1027 hPa WNW 9.7 km/h 19.3 km/h 85 % 0 mm
08:52 9.8 °C 7.2 °C 1027 hPa NE 6.4 km/h 19.3 km/h 84 % 0 mm
08:57 9.8 °C 7.4 °C 1026.6 hPa NNW 3.2 km/h 16.1 km/h 85 % 0 mm
09:02 9.9 °C 7.5 °C 1027 hPa NW 4.8 km/h 16.1 km/h 85 % 0 mm
09:07 10.1 °C 7.5 °C 1027.7 hPa NW 4.8 km/h 14.5 km/h 84 % 0 mm
09:12 10.2 °C 7.6 °C 1027.7 hPa North 6.4 km/h 11.3 km/h 84 % 0 mm
09:17 10.2 °C 7.6 °C 1027.7 hPa NNW 3.2 km/h 16.1 km/h 84 % 0 mm
09:22 10.3 °C 7.5 °C 1027.7 hPa NW 3.2 km/h 16.1 km/h 83 % 0 mm
09:27 10.6 °C 7.8 °C 1027.7 hPa ENE 1.6 km/h 16.1 km/h 83 % 0 mm
09:32 10.9 °C 7.9 °C 1027.7 hPa NNW 3.2 km/h 12.9 km/h 82 % 0 mm
09:38 11.2 °C 8.1 °C 1027.7 hPa NW 1.6 km/h 11.3 km/h 81 % 0 mm
09:43 11.2 °C 7.9 °C 1027.7 hPa NW 3.2 km/h 11.3 km/h 80 % 0 mm
09:48 11.3 °C 8 °C 1028 hPa West 4.8 km/h 11.3 km/h 80 % 0 mm
09:53 11.4 °C 7.9 °C 1028 hPa NNE 12.9 km/h 17.7 km/h 79 % 0 mm
09:58 11.5 °C 7.8 °C 1027.7 hPa ENE 4.8 km/h 17.7 km/h 78 % 0 mm
10:03 11.6 °C 7.9 °C 1028 hPa NNW 8 km/h 17.7 km/h 78 % 0 mm
10:08 11.7 °C 7.8 °C 1028 hPa SSW 3.2 km/h 17.7 km/h 77 % 0 mm
10:13 11.9 °C 8 °C 1028 hPa NW 1.6 km/h 20.9 km/h 77 % 0 mm
10:18 12.3 °C 8.4 °C 1028 hPa NW 4.8 km/h 20.9 km/h 77 % 0 mm
10:23 12.6 °C 8.5 °C 1028 hPa NW 4.8 km/h 20.9 km/h 76 % 0 mm
10:28 12.8 °C 8.5 °C 1028.3 hPa Calm   17.7 km/h 75 % 0 mm
10:33 12.9 °C 8.2 °C 1028.3 hPa NW 6.4 km/h 17.7 km/h 73 % 0 mm
10:38 12.9 °C 8.2 °C 1028.3 hPa North 9.7 km/h 17.7 km/h 73 % 0 mm
10:43 13 °C 8.5 °C 1028.3 hPa NNW 6.4 km/h 16.1 km/h 74 % 0 mm
10:48 13 °C 8.3 °C 1028.3 hPa ENE 4.8 km/h 16.1 km/h 73 % 0 mm
10:53 12.9 °C 8.2 °C 1028.3 hPa NNE 6.4 km/h 14.5 km/h 73 % 0 mm
10:58 12.8 °C 8.3 °C 1028.3 hPa NNW 8 km/h 14.5 km/h 74 % 0 mm
11:03 12.7 °C 8.2 °C 1028.3 hPa NNW 9.7 km/h 14.5 km/h 74 % 0 mm
11:08 12.8 °C 8.3 °C 1028.3 hPa NNW 19.3 km/h 19.3 km/h 74 % 0 mm
11:13 13 °C 8.3 °C 1028 hPa NNW 9.7 km/h 19.3 km/h 73 % 0 mm
11:18 13.1 °C 8.2 °C 1028 hPa North 6.4 km/h 19.3 km/h 72 % 0 mm
11:23 13.2 °C 8.3 °C 1028 hPa NW 1.6 km/h 19.3 km/h 72 % 0 mm
11:28 13.3 °C 8.4 °C 1028 hPa NE 6.4 km/h 19.3 km/h 72 % 0 mm
11:33 13.5 °C 8.6 °C 1028 hPa NW 9.7 km/h 17.7 km/h 72 % 0 mm
11:38 13.7 °C 8.7 °C 1028 hPa NNW 4.8 km/h 17.7 km/h 72 % 0 mm
11:43 13.9 °C 8.7 °C 1027.7 hPa WNW 9.7 km/h 12.9 km/h 71 % 0 mm
11:48 14.2 °C 8.8 °C 1027.7 hPa NW 4.8 km/h 16.1 km/h 70 % 0 mm
11:53 14.3 °C 8.7 °C 1027.7 hPa North 4.8 km/h 16.1 km/h 69 % 0 mm
11:58 14.5 °C 8.7 °C 1027.7 hPa North 9.7 km/h 16.1 km/h 68 % 0 mm
12:03 14.6 °C 9 °C 1027.7 hPa NW 3.2 km/h 16.1 km/h 69 % 0 mm
12:09 14.9 °C 8.8 °C 1027.7 hPa WNW 4.8 km/h 16.1 km/h 67 % 0 mm
12:14 15 °C 8.9 °C 1027.7 hPa NW 3.2 km/h 16.1 km/h 67 % 0 mm
12:19 15.2 °C 9.1 °C 1027.3 hPa North 8 km/h 17.7 km/h 67 % 0 mm
12:24 15.3 °C 8.8 °C 1027.3 hPa NNW 3.2 km/h 17.7 km/h 65 % 0 mm
12:29 15.3 °C 9 °C 1027.3 hPa NNW 8 km/h 17.7 km/h 66 % 0 mm
12:34 15.5 °C 8.9 °C 1027.3 hPa NW 4.8 km/h 16.1 km/h 65 % 0 mm
12:39 15.2 °C 8.7 °C 1027 hPa NW 4.8 km/h 16.1 km/h 65 % 0 mm
12:44 15.2 °C 8.7 °C 1027 hPa North 6.4 km/h 17.7 km/h 65 % 0 mm
12:49 15.3 °C 8.8 °C 1026.6 hPa NNW 6.4 km/h 17.7 km/h 65 % 0 mm
12:54 15.4 °C 8.9 °C 1026.6 hPa NNE 4.8 km/h 17.7 km/h 65 % 0 mm
12:59 15.8 °C 9 °C 1026.6 hPa NNW 9.7 km/h 17.7 km/h 64 % 0 mm
13:04 15.8 °C 8.8 °C 1026.6 hPa NW 9.7 km/h 14.5 km/h 63 % 0 mm
13:09 15.8 °C 9.2 °C 1026.6 hPa NW 3.2 km/h 16.1 km/h 65 % 0 mm
13:14 15.8 °C 9.2 °C 1026.3 hPa NNE 9.7 km/h 16.1 km/h 65 % 0 mm
13:19 15.9 °C 8.9 °C 1026.3 hPa NW 6.4 km/h 16.1 km/h 63 % 0 mm
13:24 16.1 °C 8.8 °C 1026.3 hPa NNE 6.4 km/h 16.1 km/h 62 % 0 mm
13:29 16.1 °C 8.8 °C 1026.3 hPa WNW 8 km/h 22.5 km/h 62 % 0 mm
13:34 16 °C 8.7 °C 1026.3 hPa WNW 8 km/h 22.5 km/h 62 % 0 mm
13:39 16.1 °C 8.8 °C 1026.3 hPa North 4.8 km/h 22.5 km/h 62 % 0 mm
13:44 16.2 °C 8.7 °C 1026.3 hPa NNW 8 km/h 16.1 km/h 61 % 0 mm
13:50 16.1 °C 8.8 °C 1026 hPa NNW 3.2 km/h 16.1 km/h 62 % 0 mm
13:55 16.1 °C 8.6 °C 1026 hPa NNW 4.8 km/h 16.1 km/h 61 % 0 mm
14:00 16.1 °C 8.8 °C 1026 hPa NW 6.4 km/h 16.1 km/h 62 % 0 mm
14:05 16.3 °C 9 °C 1025.6 hPa NNW 6.4 km/h 16.1 km/h 62 % 0 mm
14:10 16.3 °C 8.8 °C 1025.6 hPa WNW 3.2 km/h 17.7 km/h 61 % 0 mm
14:15 16.2 °C 8.7 °C 1025.6 hPa NW 6.4 km/h 17.7 km/h 61 % 0 mm
14:20 16.1 °C 8.8 °C 1025.6 hPa NNE 6.4 km/h 17.7 km/h 62 % 0 mm
14:25 15.8 °C 8.5 °C 1025.3 hPa NW 6.4 km/h 14.5 km/h 62 % 0 mm
14:30 15.8 °C 8.8 °C 1025.3 hPa NNE 9.7 km/h 19.3 km/h 63 % 0 mm
14:35 16.1 °C 8.8 °C 1025.3 hPa North 6.4 km/h 19.3 km/h 62 % 0 mm
14:40 16.4 °C 9.1 °C 1025.3 hPa North 9.7 km/h 19.3 km/h 62 % 0 mm
14:45 16.7 °C 8.6 °C 1025.3 hPa ENE 6.4 km/h 16.1 km/h 59 % 0 mm
14:50 16.6 °C 8.3 °C 1025.3 hPa NW 1.6 km/h 20.9 km/h 58 % 0 mm
14:55 16.2 °C 8.4 °C 1025.3 hPa NNW 1.6 km/h 20.9 km/h 60 % 0 mm
15:00 16.1 °C 8.6 °C 1025.3 hPa ENE 9.7 km/h 20.9 km/h 61 % 0 mm
15:05 16.2 °C 8.9 °C 1025.3 hPa NE 1.6 km/h 20.9 km/h 62 % 0 mm
15:10 16.6 °C 8.6 °C 1024.9 hPa NW 9.7 km/h 20.9 km/h 59 % 0 mm
15:15 16.8 °C 8.7 °C 1024.9 hPa NE 1.6 km/h 20.9 km/h 59 % 0 mm
15:20 17.1 °C 8.5 °C 1024.9 hPa NW 9.7 km/h 17.7 km/h 57 % 0 mm
15:25 16.9 °C 8.3 °C 1024.9 hPa NW 11.3 km/h 16.1 km/h 57 % 0 mm
15:30 16.8 °C 8.2 °C 1024.9 hPa NNW 3.2 km/h 17.7 km/h 57 % 0 mm
15:35 16.5 °C 8.2 °C 1025.3 hPa NNE 6.4 km/h 19.3 km/h 58 % 0 mm
15:40 16.4 °C 8.1 °C 1025.3 hPa NNW 8 km/h 19.3 km/h 58 % 0 mm
15:45 16.2 °C 7.9 °C 1025.3 hPa North 8 km/h 19.3 km/h 58 % 0 mm
15:50 16.2 °C 8.2 °C 1025.3 hPa North 1.6 km/h 19.3 km/h 59 % 0 mm
15:55 16.1 °C 8.1 °C 1025.3 hPa North 3.2 km/h 14.5 km/h 59 % 0 mm
16:00 16.1 °C 7.8 °C 1025.3 hPa NNW 6.4 km/h 17.7 km/h 58 % 0 mm
16:06 15.9 °C 7.9 °C 1025.3 hPa NW 9.7 km/h 17.7 km/h 59 % 0 mm
16:11 15.8 °C 7.8 °C 1025.6 hPa NNW 4.8 km/h 17.7 km/h 59 % 0 mm
16:16 15.7 °C 7.7 °C 1025.6 hPa NNW 1.6 km/h 17.7 km/h 59 % 0 mm
16:21 15.9 °C 7.9 °C 1025.6 hPa NW 3.2 km/h 17.7 km/h 59 % 0 mm
16:26 15.9 °C 7.6 °C 1025.6 hPa NNW 8 km/h 22.5 km/h 58 % 0 mm
16:31 15.6 °C 7.6 °C 1025.3 hPa North 11.3 km/h 22.5 km/h 59 % 0 mm
16:36 15.6 °C 7.6 °C 1025.3 hPa North 6.4 km/h 22.5 km/h 59 % 0 mm
16:41 15.4 °C 7.4 °C 1025.6 hPa NW 8 km/h 19.3 km/h 59 % 0 mm
16:46 15 °C 7.3 °C 1025.6 hPa NW 11.3 km/h 17.7 km/h 60 % 0 mm
16:51 14.9 °C 7.4 °C 1026 hPa NW 11.3 km/h 20.9 km/h 61 % 0 mm
16:56 14.6 °C 7.2 °C 1026 hPa SW 8 km/h 20.9 km/h 61 % 0 mm
17:01 14.4 °C 7.2 °C 1026 hPa WNW 8 km/h 20.9 km/h 62 % 0 mm
17:06 14.2 °C 7 °C 1026 hPa NNW 4.8 km/h 19.3 km/h 62 % 0 mm
17:11 14.1 °C 7.2 °C 1026 hPa NNE 6.4 km/h 19.3 km/h 63 % 0 mm
17:16 13.9 °C 7 °C 1026 hPa NNW 4.8 km/h 19.3 km/h 63 % 0 mm
17:21 13.8 °C 6.9 °C 1026.3 hPa NW 4.8 km/h 17.7 km/h 63 % 0 mm
17:26 13.7 °C 7 °C 1026.3 hPa NNE 3.2 km/h 17.7 km/h 64 % 0 mm
17:31 13.6 °C 6.9 °C 1026.3 hPa Calm   17.7 km/h 64 % 0 mm
17:36 13.4 °C 7 °C 1026.3 hPa NNE 8 km/h 16.1 km/h 65 % 0 mm
17:41 13.2 °C 6.8 °C 1026.3 hPa NE 6.4 km/h 16.1 km/h 65 % 0 mm
17:46 13.1 °C 6.7 °C 1026.6 hPa NNE 8 km/h 16.1 km/h 65 % 0 mm
17:51 13.1 °C 6.9 °C 1026.6 hPa East 6.4 km/h 16.1 km/h 66 % 0 mm
17:53 13.1 °C 6.9 °C 1026.3 hPa North 6.4 km/h 16.1 km/h 66 % 0 mm
17:58 13 °C 6.8 °C 1026.6 hPa NNE 12.9 km/h 14.5 km/h 66 % 0 mm
18:03 12.9 °C 6.7 °C 1026.6 hPa NW 8 km/h 12.9 km/h 66 % 0 mm
18:08 12.7 °C 6.7 °C 1026.6 hPa NW 6.4 km/h 16.1 km/h 67 % 0 mm
18:13 12.6 °C 6.6 °C 1026.6 hPa West 3.2 km/h 16.1 km/h 67 % 0 mm
18:18 12.5 °C 6.5 °C 1026.6 hPa WNW 4.8 km/h 19.3 km/h 67 % 0 mm
18:23 12.4 °C 6.4 °C 1026.6 hPa NNW 8 km/h 22.5 km/h 67 % 0 mm
18:28 12.3 °C 6.3 °C 1027 hPa NNW 4.8 km/h 22.5 km/h 67 % 0 mm
18:33 12.3 °C 6.3 °C 1027 hPa North 9.7 km/h 22.5 km/h 67 % 0 mm
18:38 12.3 °C 6.3 °C 1027 hPa WNW 4.8 km/h 19.3 km/h 67 % 0 mm
18:43 12.2 °C 6.5 °C 1027.3 hPa NW 4.8 km/h 19.3 km/h 68 % 0 mm
18:48 12.2 °C 6.5 °C 1027.3 hPa NNW 9.7 km/h 17.7 km/h 68 % 0 mm
18:53 12.1 °C 6.2 °C 1027.3 hPa NW 4.8 km/h 17.7 km/h 67 % 0 mm
18:58 12 °C 6.3 °C 1027.3 hPa NNW 8 km/h 17.7 km/h 68 % 0 mm
19:03 11.9 °C 6.2 °C 1027.3 hPa NNW 6.4 km/h 19.3 km/h 68 % 0 mm
19:08 11.9 °C 6.2 °C 1027.3 hPa North 4.8 km/h 19.3 km/h 68 % 0 mm
19:13 11.9 °C 6.2 °C 1027.3 hPa North 11.3 km/h 19.3 km/h 68 % 0 mm
19:18 11.8 °C 6.1 °C 1027.3 hPa ENE 3.2 km/h 17.7 km/h 68 % 0 mm
19:24 11.8 °C 6.1 °C 1027.3 hPa NNW 6.4 km/h 17.7 km/h 68 % 0 mm
19:29 11.8 °C 6.1 °C 1027.7 hPa NNW 4.8 km/h 17.7 km/h 68 % 0 mm
19:34 11.8 °C 6.1 °C 1027.7 hPa NE 8 km/h 17.7 km/h 68 % 0 mm
19:39 11.7 °C 6 °C 1027.7 hPa North 4.8 km/h 17.7 km/h 68 % 0 mm
19:44 11.7 °C 6 °C 1028 hPa North 9.7 km/h 17.7 km/h 68 % 0 mm
19:49 11.8 °C 6.1 °C 1028 hPa NNW 6.4 km/h 14.5 km/h 68 % 0 mm
19:54 11.8 °C 6.1 °C 1028 hPa WNW 4.8 km/h 11.3 km/h 68 % 0 mm
19:59 11.8 °C 5.9 °C 1028 hPa WNW 4.8 km/h 16.1 km/h 67 % 0 mm
20:04 11.7 °C 5.6 °C 1028.3 hPa NNE 3.2 km/h 16.1 km/h 66 % 0 mm
20:09 11.7 °C 5.6 °C 1028.3 hPa ENE 6.4 km/h 16.1 km/h 66 % 0 mm
20:14 11.7 °C 5.6 °C 1028.3 hPa NNW 4.8 km/h 16.1 km/h 66 % 0 mm
20:19 11.7 °C 5.6 °C 1028.3 hPa NW 1.6 km/h 16.1 km/h 66 % 0 mm
20:24 11.7 °C 5.6 °C 1028.3 hPa NW 3.2 km/h 11.3 km/h 66 % 0 mm
20:29 11.8 °C 5.9 °C 1028.3 hPa NE 6.4 km/h 11.3 km/h 67 % 0 mm
20:34 11.8 °C 5.7 °C 1028.7 hPa North 3.2 km/h 11.3 km/h 66 % 0 mm
20:39 11.7 °C 5.6 °C 1028.7 hPa NE 12.9 km/h 12.9 km/h 66 % 0 mm
20:44 11.7 °C 5.6 °C 1028.7 hPa ENE 4.8 km/h 12.9 km/h 66 % 0 mm
20:49 11.7 °C 5.6 °C 1028.3 hPa North 9.7 km/h 14.5 km/h 66 % 0 mm
20:54 11.6 °C 5.7 °C 1028.3 hPa North 11.3 km/h 16.1 km/h 67 % 0 mm
20:59 11.6 °C 5.7 °C 1028.3 hPa WNW 3.2 km/h 16.1 km/h 67 % 0 mm
21:04 11.6 °C 5.7 °C 1028.3 hPa East 3.2 km/h 17.7 km/h 67 % 0 mm
21:09 11.6 °C 5.7 °C 1028.3 hPa NNW 1.6 km/h 17.7 km/h 67 % 0 mm
21:14 11.6 °C 5.7 °C 1028.3 hPa North 1.6 km/h 17.7 km/h 67 % 0 mm
21:19 11.6 °C 5.7 °C 1028.3 hPa Calm   14.5 km/h 67 % 0 mm
21:24 11.6 °C 5.7 °C 1028.3 hPa East 4.8 km/h 14.5 km/h 67 % 0 mm
21:29 11.6 °C 5.7 °C 1028.3 hPa West 1.6 km/h 12.9 km/h 67 % 0 mm
21:34 11.6 °C 5.7 °C 1028.3 hPa NE 3.2 km/h 12.9 km/h 67 % 0 mm
21:40 11.6 °C 5.7 °C 1028.3 hPa ENE 1.6 km/h 12.9 km/h 67 % 0 mm
21:45 11.6 °C 5.7 °C 1028.3 hPa NNW 4.8 km/h 11.3 km/h 67 % 0 mm
21:50 11.6 °C 5.7 °C 1028 hPa NNW 1.6 km/h 14.5 km/h 67 % 0 mm
21:55 11.5 °C 5.6 °C 1028 hPa NE 1.6 km/h 14.5 km/h 67 % 0 mm
22:00 11.5 °C 5.6 °C 1028.3 hPa East 3.2 km/h 14.5 km/h 67 % 0 mm
22:05 11.6 °C 5.7 °C 1028.3 hPa SE 1.6 km/h 11.3 km/h 67 % 0 mm
22:10 11.6 °C 5.7 °C 1028.3 hPa ENE 8 km/h 12.9 km/h 67 % 0 mm
22:15 11.6 °C 5.7 °C 1028.3 hPa NNE 9.7 km/h 12.9 km/h 67 % 0 mm
22:20 11.5 °C 5.6 °C 1028.3 hPa ENE 1.6 km/h 14.5 km/h 67 % 0 mm
22:25 11.6 °C 5.9 °C 1028.3 hPa NNE 3.2 km/h 14.5 km/h 68 % 0 mm
22:30 11.5 °C 5.6 °C 1028 hPa NNE 6.4 km/h 14.5 km/h 67 % 0 mm
22:35 11.4 °C 5.5 °C 1028 hPa ESE 1.6 km/h 14.5 km/h 67 % 0 mm
22:40 11.4 °C 5.5 °C 1028.3 hPa East 12.9 km/h 14.5 km/h 67 % 0 mm
22:45 11.4 °C 5.5 °C 1028.3 hPa ENE 3.2 km/h 14.5 km/h 67 % 0 mm
22:50 11.4 °C 5.5 °C 1028 hPa ENE 9.7 km/h 12.9 km/h 67 % 0 mm
22:55 11.4 °C 5.7 °C 1028 hPa Calm   12.9 km/h 68 % 0 mm
23:00 11.4 °C 5.7 °C 1027.7 hPa NE 11.3 km/h 17.7 km/h 68 % 0 mm
23:05 11.4 °C 5.7 °C 1027.7 hPa NW 1.6 km/h 17.7 km/h 68 % 0 mm
23:10 11.3 °C 5.6 °C 1027.7 hPa NNE 4.8 km/h 17.7 km/h 68 % 0 mm
23:15 11.3 °C 5.6 °C 1028 hPa North 4.8 km/h 17.7 km/h 68 % 0 mm
23:20 11.3 °C 5.6 °C 1028 hPa ENE 4.8 km/h 12.9 km/h 68 % 0 mm
23:25 11.3 °C 5.6 °C 1028 hPa North 1.6 km/h 12.9 km/h 68 % 0 mm
23:30 11.3 °C 5.6 °C 1027.7 hPa ENE 9.7 km/h 12.9 km/h 68 % 0 mm
23:33 11.3 °C 5.6 °C 1028 hPa ESE 4.8 km/h 12.9 km/h 68 % 0 mm
23:38 11.3 °C 5.6 °C 1028 hPa East 3.2 km/h 19.3 km/h 68 % 0 mm
23:43 11.3 °C 5.6 °C 1028 hPa East 3.2 km/h 19.3 km/h 68 % 0 mm
23:48 11.3 °C 5.6 °C 1027.7 hPa East 6.4 km/h 19.3 km/h 68 % 0 mm
23:53 11.3 °C 5.6 °C 1027.7 hPa ENE 4.8 km/h 16.1 km/h 68 % 0 mm
23:58 11.3 °C 5.6 °C 1027.7 hPa NNE 3.2 km/h 16.1 km/h 68 % 0 mm
Spring, Texas: Villages of Bridgestone
Compliments of Weather Underground - 2.75 mb

Script developed by  Jim McMurry - jmcmurry@mwt.net Adapted for the template by  Wim van der Kuil - Leuven-Template.eu

You find our weather info also at:

UK Metoffice

WeatherCloud

Weather Underground

Mid-South Weather Network

AWEKAS

Citizen Weather Observer Program (CWOP)

HAMweather, WeatherForYou, PWS Weather

Equipment we use:

Weather-station
Davis Vantage Vue

Weather-program
Meteohub

Weather-server
Debian 7.9 x86 (Guest)

Provider
DreamHost

Davis Vantage Vue

Meteohub

Debian 7.9 x86 (Guest)

DreamHost